Moab, UT

6:42 PM MST on November 11, 2019 (GMT -0700)
Canyonlands

Weather History for KCNY - May, 2019

Change the Weather History Date:

Wednesday, May 29, 2019

  Actual Average Record
Temperature  
Mean Temperature 60 °F 67 °F  
Max Temperature 71 °F 84 °F 100 °F (2000)
Min Temperature 48 °F 50 °F 32 °F (2006)
Degree Days  
Heating Degree Days 5 2  
Month to date heating degree days 233 131  
Since 1 July heating degree days 5803 5556  
Cooling Degree Days 0 4  
Month to date cooling degree days 12 51  
Year to date cooling degree days 14 54  
Growing Degree Days 8 (Base 50)    
Moisture  
Dew Point 37 °F    
Average Humidity 58    
Maximum Humidity 93    
Minimum Humidity 23    
Precipitation  
Precipitation 0.00 in 0.01 in 0.32 in (1999)
Month to date precipitation 0.99 0.54  
Year to date precipitation 5.98 3.16  
Sea Level Pressure  
Sea Level Pressure 29.86 in    
Wind  
Wind Speed 6 mph (West)    
Max Wind Speed 18 mph    
Max Gust Speed 27 mph    
Visibility 10 miles    
Events      
T = Trace of Precipitation, MM = Missing Value Source: NWS Daily Summary

Daily Weather History Graph

Daily Weather History Graph

Search for Another Location

Airport or City:

Astronomy

May. 29, 2019 Rise Set
Actual Time 5:57 AM MDT 8:35 PM MDT
Civil Twilight 5:26 AM MDT 9:07 PM MDT
Nautical Twilight 4:47 AM MDT 9:45 PM MDT
Astronomical Twilight 4:04 AM MDT 10:29 PM MDT
Moon 3:33 AM MDT (5/29) 3:50 PM MDT (5/29)
Length of Visible Light 15h 40m
Length of Day
14h 38m
Waning Crescent, 22% of the Moon is Illuminated
May 29
Waning Crescent
Jun 3
New
Jun 10
First Quarter
Jun 17
Full
Jun 25
Last Quarter

Hourly Weather History & Observations

Time (MDT) Temp. Dew Point Humidity Pressure Visibility Wind Dir Wind Speed Gust Speed Precip Events Conditions
12:53 AM 51.1 °F 43.0 °F 74% 29.87 in 10.0 mi Calm Calm - N/A   Scattered Clouds
1:53 AM 50.0 °F 44.1 °F 80% 29.86 in 10.0 mi Calm Calm - N/A   Overcast
2:53 AM 50.0 °F 45.0 °F 83% 29.86 in 10.0 mi Calm Calm - N/A   Mostly Cloudy
3:53 AM 48.9 °F 43.0 °F 80% 29.86 in 10.0 mi West 3.5 mph - N/A   Mostly Cloudy
4:53 AM 50.0 °F 44.1 °F 80% 29.85 in 10.0 mi WNW 3.5 mph - N/A   Overcast
5:53 AM 48.9 °F 46.0 °F 90% 29.86 in 10.0 mi Calm Calm - N/A   Scattered Clouds
6:53 AM 50.0 °F 46.0 °F 86% 29.88 in 10.0 mi West 4.6 mph - N/A   Overcast
7:53 AM 55.9 °F 39.0 °F 53% 29.88 in 10.0 mi ENE 9.2 mph - N/A   Clear
8:53 AM 55.9 °F 36.0 °F 47% 29.90 in 10.0 mi NE 11.5 mph - N/A   Scattered Clouds
9:53 AM 60.1 °F 35.1 °F 39% 29.89 in 10.0 mi NE 13.8 mph 21.9 mph N/A   Clear
10:53 AM 63.0 °F 34.0 °F 34% 29.89 in 10.0 mi East 10.4 mph 23.0 mph N/A   Clear
11:53 AM 64.0 °F 34.0 °F 33% 29.89 in 10.0 mi NE 12.7 mph 21.9 mph N/A   Clear
12:53 PM 64.9 °F 33.1 °F 31% 29.88 in 10.0 mi East 8.1 mph - N/A   Partly Cloudy
1:53 PM 66.9 °F 34.0 °F 30% 29.86 in 10.0 mi North - - N/A   Mostly Cloudy
2:53 PM 66.0 °F 34.0 °F 30% 29.86 in 10.0 mi North - - N/A   Partly Cloudy
3:53 PM 69.1 °F 34.0 °F 27% 29.84 in 10.0 mi West 11.5 mph 18.4 mph N/A   Clear
4:53 PM 69.1 °F 32.0 °F 25% 29.83 in 10.0 mi SW 9.2 mph - N/A   Clear
5:53 PM 69.1 °F 30.9 °F 24% 29.83 in 10.0 mi Variable 4.6 mph - N/A   Partly Cloudy
6:53 PM 68.0 °F 30.0 °F 24% 29.83 in 10.0 mi Variable 3.5 mph - N/A   Clear
7:53 PM 66.9 °F 30.9 °F 26% 29.82 in 10.0 mi SSW 4.6 mph - N/A   Clear
8:53 PM 61.0 °F 34.0 °F 36% 29.85 in 8.0 mi WSW 5.8 mph - N/A   Clear
9:53 PM 61.0 °F 32.0 °F 34% 29.87 in 10.0 mi Calm Calm - N/A   Clear
10:53 PM 57.9 °F 34.0 °F 41% 29.89 in 10.0 mi SSE 4.6 mph - N/A   Clear
11:53 PM 57.9 °F 33.1 °F 39% 29.90 in 10.0 mi Calm Calm - N/A   Clear